DIRECTV 10              
1 31862U 07032A   19266.41870566 -.00000114  00000-0  00000+0 0  9999
2 31862   0.0410 344.3586 0000100 315.4237 110.1931  1.00271778 44755
BREEZE-M DEB [TANK]     
1 31863U 07032B   19264.42524623  .00000075  00000-0  11958-3 0  9992
2 31863  45.9261 322.9082 4971234  36.2913 348.9705  5.52211604245171
BREEZE-M R/B            
1 31864U 07032C   19263.62120161 -.00000390  00000-0  00000-0 0  9997
2 31864  21.7211   1.7746 5768773  94.3820 306.3818  2.01213654 89585